Location: Chandolas
(44.4033°N, 4.2533°E)
Time: 14:36:52
(UTC+00:00)

Cosmos 2369 - Pass Details

Date: 29 February 2020
Orbit: 841 x 855 km, 71.0° (Epoch: 08 April)

Event Time Altitude Azimuth Distance (km) Brightness Sun altitude
Rises 19:19:27 0° 175° (S) 3,409 6.7 -20.3°
Reaches altitude 10° 19:22:08 10° 165° (SSE) 2,477 5.9 -20.7°
Enters shadow 19:22:31 12° 163° (SSE) 2,352 5.8 -20.8°
